Retour au catalogue

FENGYUN 1C DEB

ActifSSO
NORAD 30272·DEBRIS·🇨🇳 China

Lancé May 10, 1999 depuis Taiyuan Satellite Launch Center

Loading…

Prochains Passages (prochaines 24 heures)

TLE

FraisSource: Space-Track

Époque: Sep 14, 2026, 03:48 UTC

1 30272U 99025YH  26257.15856422  .00001370  00000-0  71093-3 0  9998
2 30272  98.8841 329.0000 0049492  43.2964 317.2083 14.15813672  7519

Suivez FENGYUN 1C DEB en temps réel avec AllMySat

Download on the App Store